Regional Weather Roundup
Issued by NWS

Home | Current Version | Previous Version | Text Only | Print | Product List | Glossary On
Versions: 1 2 3 4 5 6 7 8 9 10 11 12 13 14 15 16 17 18 19 20 21 22 23 24 25 26 27 28 29 30 31 32 33 34 35 36 37 38 39 40 41 42 43 44 45 46 47 48 49 50
000
ASUS44 KOUN 041210
RWROK

WEATHER ROUNDUP FOR OKLAHOMA
NATIONAL WEATHER SERVICE NORMAN OK
700 AM CDT TUE AUG 04 2015

NOTE: "FAIR" INDICATES FEW OR NO CLOUDS BELOW 12,000 FEET WITH NO
      SIGNIFICANT WEATHER AND/OR OBSTRUCTIONS TO VISIBILITY.

OKZ001>007-009>012-014-015-017-041300-
NORTHWEST OKLAHOMA AND THE PANHANDLE

CITY           SKY/WX    TMP DP  RH WIND       PRES   REMARKS
GAGE           CLOUDY    69  67  93 S13       29.97F
6HR MIN TEMP:  69; 6HR MAX TEMP:  73; 6HR PCP:  0.21;

GUYMON         PTCLDY    65  61  87 N5        29.98R
ENID/WOODRING  MOCLDY    75  68  78 S8        29.94S
$$

OKZ016-021>023-033>039-044-045-041300-
SOUTHWEST OKLAHOMA

CITY           SKY/WX    TMP DP  RH WIND       PRES   REMARKS
LAWTON/REGL    LGT RAIN  72  69  90 E9        29.95F
6HR MIN TEMP:  72; 6HR MAX TEMP:  80;

LAWTON/FT SILL CLOUDY    72  72 100 E10       29.94F
FREDERICK      LGT RAIN  73  71  93 NE9       29.93R
CLINTON        CLOUDY    71  68  90 NE7       30.00R
HOBART         CLOUDY    71  70  96 E10       29.97F FOG
ALTUS AFB      CLOUDY    72  69  90 NE10      29.95R
$$

OKZ018>020-024>031-041300-
CENTRAL OKLAHOMA

CITY           SKY/WX    TMP DP  RH WIND       PRES   REMARKS
OKLAHOMA CITY  RAIN      70  70 100 S7        30.00S FOG
6HR MIN TEMP:  70; 6HR MAX TEMP:  76; 6HR PCP:  0.26;

OKC/WILEY POST LGT RAIN  72  69  90 S9        29.99S FOG
OKC/TINKER AFB RAIN      71  68  90 SW14      29.98S
STILLWATER     CLOUDY    77  68  73 SW8       29.97R
GUTHRIE        CLOUDY    75  67  76 SW10      29.97R
$$

OKZ008-013-054>072-041300-
NORTHEAST OKLAHOMA

CITY           SKY/WX    TMP DP  RH WIND       PRES   REMARKS
TULSA          CLOUDY    77  71  82 SE7       29.93R
6HR MIN TEMP:  76; 6HR MAX TEMP:  81;

TULSA/JONES    MOCLDY    73  71  93 CALM      29.95R
PONCA CITY     CLOUDY    76  69  79 SW3       29.95R
MUSKOGEE       MOCLDY    74  71  91 S6        29.97R
$$

OKZ032-040>043-046>053-073>077-041300-
SOUTH CENTRAL/SOUTHEAST OKLAHOMA

CITY           SKY/WX    TMP DP  RH WIND       PRES   REMARKS
ARDMORE/DWNTWN CLOUDY    77  64  65 NW3       29.98R
MCALESTER      CLOUDY    78  64  61 CALM      29.97R
$$




USA.gov is the U.S. government's official web portal to all federal, state and local government web resources and services.